EW4504 Weather Reports


time (UTC)temp
F
wind
direction
speed
knots
gust
knots
rain 1hr
in
rain 24hr
in
rain mn
in
humidity
%
barometer
mb
20260901190052 93 360 1.7 4.3 0.00 0.00 0.00 49 1019.2
20260901185534 93 0 0.9 5.2 0.00 0.00 0.00 49 1019.2
20260901185032 93 360 1.7 6.1 0.00 0.00 0.00 50 1019.2
20260901184554 93 335 2.6 6.1 0.00 0.00 0.00 51 1019.3
20260901184035 93 307 1.7 5.2 0.00 0.00 0.00 52 1019.2
20260901183532 93 30 1.7 6.1 0.00 0.00 0.00 51 1019.3
20260901183051 93 78 0.9 6.1 0.00 0.00 0.00 50 1019.3
20260901182532 93 0 2.6 7.8 0.00 0.00 0.00 51 1019.4
20260901182029 93 146 2.6 7.8 0.00 0.00 0.00 51 1019.4
20260901181600 93 128 0.9 6.1 0.00 0.00 0.00 52 1019.5
20260901181031 92 30 2.6 6.1 0.00 0.00 0.00 53 1019.6
20260901180531 92 74 2.6 5.2 0.00 0.00 0.00 53 1019.6
20260901180049 92 26 2.6 7.0 0.00 0.00 0.00 53 1019.7
20260901175536 92 38 1.7 7.0 0.00 0.00 0.00 54 1019.7
20260901175030 92 17 0.9 5.2 0.00 0.00 0.00 54 1019.8
20260901174551 91 128 0.9 5.2 0.00 0.00 0.00 56 1019.8
20260901174032 91 108 0.9 6.1 0.00 0.00 0.00 56 1019.8
20260901173532 91 10 2.6 6.1 0.00 0.00 0.00 55 1020.0
20260901173101 91 330 1.7 7.8 0.00 0.00 0.00 55 1020.0
20260901172530 91 360 0.9 7.8 0.00 0.00 0.00 56 1020.1
20260901172032 91 13 0.9 6.1 0.00 0.00 0.00 56 1020.2
20260901171603 91 96 1.7 4.3 0.00 0.00 0.00 56 1020.2
20260901171029 91 239 1.7 5.2 0.00 0.00 0.00 55 1020.2
20260901170531 91 326 2.6 6.1 0.00 0.00 0.00 55 1020.3
20260901170054 91 341 2.6 6.1 0.00 0.00 0.00 55 1020.4
20260901165530 91 234 0.9 6.1 0.00 0.00 0.00 56 1020.4
20260901165034 92 153 1.7 7.0 0.00 0.00 0.00 55 1020.5
20260901164555 92 63 1.7 7.0 0.00 0.00 0.00 55 1020.6
20260901164031 92 360 1.7 7.0 0.00 0.00 0.00 55 1020.6
20260901163533 92 19 1.7 7.8 0.00 0.00 0.00 56 1020.7
20260901163047 91 40 2.6 7.8 0.00 0.00 0.00 58 1020.7
20260901162531 90 22 1.7 5.2 0.00 0.00 0.00 57 1020.7
20260901162032 91 196 1.7 7.0 0.00 0.00 0.00 58 1020.7
20260901161552 91 312 2.6 7.0 0.00 0.00 0.00 57 1020.9
20260901161032 90 304 0.9 4.3 0.00 0.00 0.00 59 1021.0
20260901160529 90 98 1.7 5.2 0.00 0.00 0.00 61 1021.1
20260901160055 89 319 0.9 6.1 0.00 0.00 0.00 61 1021.2
20260901155532 89 309 2.6 6.1 0.00 0.00 0.00 63 1021.3
20260901155030 89 219 0.9 6.1 0.00 0.00 0.00 63 1021.3
20260901154549 90 221 1.7 6.1 0.00 0.00 0.00 62 1021.3
20260901154036 89 346 1.7 7.0 0.00 0.00 0.00 63 1021.3
20260901153532 89 68 1.7 7.0 0.00 0.00 0.00 65 1021.3
20260901153118 88 292 0.9 5.2 0.00 0.00 0.00 65 1021.3
20260901152531 88 323 1.7 7.0 0.00 0.00 0.00 66 1021.5
20260901152031 87 334 2.6 7.0 0.00 0.00 0.00 68 1021.5
20260901151544 86 25 2.6 5.2 0.00 0.00 0.00 68 1021.5
20260901151030 86 355 1.7 5.2 0.00 0.00 0.00 70 1021.5
20260901150531 86 286 2.6 5.2 0.00 0.00 0.00 70 1021.4
20260901150056 85 347 1.7 5.2 0.00 0.00 0.00 71 1021.4
20260901145532 84 280 0.9 5.2 0.00 0.00 0.00 72 1021.3
20260901145028 83 275 0.9 4.3 0.00 0.00 0.00 73 1021.3
20260901144554 83 282 0.9 5.2 0.00 0.00 0.00 74 1021.3
20260901144031 83 0 0.9 5.2 0.00 0.00 0.00 74 1021.3
20260901143532 83 315 0.9 5.2 0.00 0.00 0.00 74 1021.4
20260901143108 82 329 1.7 4.3 0.00 0.00 0.00 75 1021.5
20260901142529 82 15 0.9 3.5 0.00 0.00 0.00 77 1021.5
20260901142031 81 0 0.9 3.5 0.00 0.00 0.00 78 1021.4
20260901141547 81 311 1.7 3.5 0.00 0.00 0.00 78 1021.4
20260901141030 81 304 0.0 3.5 0.00 0.00 0.00 79 1021.3
20260901140530 81 0 0.9 3.5 0.00 0.00 0.00 78 1021.3
20260901140048 80 301 0.9 3.5 0.00 0.00 0.00 79 1021.3
20260901135532 80 209 0.0 3.5 0.00 0.00 0.00 81 1021.1
20260901135030 80 61 0.0 1.7 0.00 0.00 0.00 82 1021.1
20260901134551 79 0 0.0 1.7 0.00 0.00 0.00 83 1021.2
20260901134033 79 61 0.0 1.7 0.00 0.00 0.00 83 1021.1
20260901133531 79 63 0.0 1.7 0.00 0.00 0.00 84 1021.1
20260901133049 78 63 0.0 1.7 0.00 0.00 0.00 85 1021.1
20260901132531 77 0 0.0 1.7 0.00 0.00 0.00 85 1021.2
20260901132030 77 0 0.0 1.7 0.00 0.00 0.00 86 1021.2
20260901131557 76 0 0.0 1.7 0.00 0.00 0.00 87 1021.2
20260901131031 76 0 0.0 0.0 0.00 0.00 0.00 87 1021.2
20260901130534 76 0 0.0 0.0 0.00 0.00 0.00 88 1021.2
20260901130052 75 0 0.0 1.7 0.00 0.00 0.00 89 1021.2
20260901125531 75 0 0.0 2.6 0.00 0.00 0.00 89 1021.1
20260901125031 75 0 0.9 2.6 0.00 0.00 0.00 89 1021.1
20260901124551 74 51 0.0 1.7 0.00 0.00 0.00 90 1021.2
20260901124031 74 0 0.0 1.7 0.00 0.00 0.00 90 1021.3
20260901123530 74 0 0.0 1.7 0.00 0.00 0.00 90 1021.3
20260901123107 73 0 0.0 1.7 0.00 0.00 0.00 90 1021.1
20260901122559 73 40 0.0 1.7 0.00 0.00 0.00 91 1021.0
20260901122031 73 40 0.0 1.7 0.00 0.00 0.00 91 1021.0
20260901121603 73 40 0.0 1.7 0.00 0.00 0.00 91 1021.0
20260901121028 73 0 0.0 1.7 0.00 0.00 0.00 91 1020.9
20260901120530 72 0 0.0 1.7 0.00 0.00 0.00 91 1020.9
20260901120048 72 0 0.0 2.6 0.00 0.00 0.00 91 1020.8
20260901115532 72 0 0.0 2.6 0.00 0.00 0.00 91 1020.7
20260901115031 72 40 0.9 2.6 0.00 0.00 0.00 91 1020.7
20260901114542 72 0 0.0 0.0 0.00 0.00 0.00 91 1020.6
20260901114035 72 0 0.0 0.9 0.00 0.00 0.00 91 1020.6
20260901113530 72 0 0.0 0.9 0.00 0.00 0.00 91 1020.6
20260901113100 72 0 0.0 1.7 0.00 0.00 0.00 91 1020.4
20260901112531 72 0 0.0 1.7 0.00 0.00 0.00 91 1020.4
20260901112031 72 0 0.0 0.9 0.00 0.00 0.00 90 1020.4
20260901111551 72 0 0.0 1.7 0.00 0.00 0.00 91 1020.3
20260901111033 72 0 0.0 1.7 0.00 0.00 0.00 90 1020.2
20260901110532 72 44 0.0 1.7 0.00 0.00 0.00 91 1020.1
20260901110046 72 0 0.0 2.6 0.00 0.00 0.00 91 1020.0
20260901105530 72 44 0.0 2.6 0.00 0.00 0.00 90 1020.0
20260901105032 72 0 0.9 2.6 0.00 0.00 0.00 90 1020.0
20260901104556 72 48 0.0 1.7 0.00 0.00 0.00 90 1019.9
20260901104033 72 0 0.0 0.0 0.00 0.00 0.00 90 1019.9
20260901103535 72 0 0.0 0.0 0.00 0.00 0.00 90 1019.9
20260901103100 72 0 0.0 0.0 0.00 0.00 0.00 90 1019.9
20260901102531 72 0 0.0 0.0 0.00 0.00 0.00 90 1019.9
20260901102032 72 0 0.0 0.0 0.00 0.00 0.00 90 1019.8
20260901101552 72 0 0.0 0.0 0.00 0.00 0.00 90 1019.8
20260901101031 72 0 0.0 0.0 0.00 0.00 0.00 90 1019.8
20260901100533 73 0 0.0 0.0 0.00 0.00 0.00 90 1019.8
20260901095533 73 0 0.0 0.9 0.00 0.00 0.00 90 1019.6
20260901095031 73 0 0.0 1.7 0.00 0.00 0.00 89 1019.6
20260901094544 73 0 0.0 1.7 0.00 0.00 0.00 89 1019.5
20260901094030 73 48 0.0 0.9 0.00 0.00 0.00 89 1019.5
20260901093534 73 0 0.0 0.9 0.00 0.00 0.00 89 1019.5
20260901093104 73 0 0.0 0.0 0.00 0.00 0.00 89 1019.5
20260901092535 73 0 0.0 0.0 0.00 0.00 0.00 89 1019.5
20260901092031 73 0 0.0 0.9 0.00 0.00 0.00 89 1019.5
20260901091556 73 0 0.0 1.7 0.00 0.00 0.00 89 1019.5
20260901091029 73 0 0.0 1.7 0.00 0.00 0.00 89 1019.4
20260901090530 73 49 0.9 1.7 0.00 0.00 0.00 89 1019.3
20260901090055 73 0 0.0 0.0 0.00 0.00 0.00 89 1019.3
20260901085527 73 0 0.0 0.0 0.00 0.00 0.00 89 1019.3
20260901085031 73 0 0.0 0.9 0.00 0.00 0.00 89 1019.3
20260901084549 73 0 0.0 1.7 0.00 0.00 0.00 89 1019.2
20260901084033 73 0 0.0 1.7 0.00 0.00 0.00 89 1019.2
20260901083529 73 49 0.0 1.7 0.00 0.00 0.00 89 1019.2
20260901083051 73 0 0.0 0.0 0.00 0.00 0.00 88 1019.3
20260901082529 73 0 0.0 0.9 0.00 0.00 0.00 88 1019.3
20260901082030 73 0 0.0 0.9 0.00 0.00 0.00 88 1019.4
20260901081548 73 0 0.0 0.9 0.00 0.00 0.00 88 1019.4
20260901081030 73 0 0.0 0.9 0.00 0.00 0.00 88 1019.5
20260901080533 73 0 0.0 1.7 0.00 0.00 0.00 88 1019.4
20260901080057 73 0 0.0 3.5 0.00 0.00 0.00 88 1019.3
20260901075533 73 51 0.9 3.5 0.00 0.00 0.00 88 1019.3
20260901075029 74 51 0.9 3.5 0.00 0.00 0.00 88 1019.3
20260901074553 74 76 0.0 0.0 0.00 0.00 0.00 88 1019.3
20260901074032 74 0 0.0 0.0 0.00 0.00 0.00 88 1019.2
20260901073529 74 0 0.0 0.0 0.00 0.00 0.00 88 1019.2
20260901073053 74 0 0.0 0.0 0.00 0.00 0.00 88 1019.3
20260901072528 74 0 0.0 0.0 0.00 0.00 0.00 88 1019.3
20260901072029 74 0 0.0 0.0 0.00 0.00 0.00 88 1019.3
20260901071554 74 0 0.0 0.0 0.00 0.00 0.00 88 1019.3
20260901071032 74 0 0.0 0.0 0.00 0.00 0.00 88 1019.3
20260901070531 74 0 0.0 0.0 0.00 0.00 0.00 87 1019.4
20260901070051 74 0 0.0 0.0 0.00 0.00 0.00 87 1019.4
20260901065531 74 0 0.0 0.0 0.00 0.00 0.00 87 1019.4
20260901065029 74 0 0.0 0.0 0.00 0.00 0.00 87 1019.5
20260901064549 74 0 0.0 0.0 0.00 0.00 0.00 87 1019.5
20260901064029 74 0 0.0 0.0 0.00 0.00 0.00 87 1019.5
20260901063528 74 0 0.0 0.0 0.00 0.00 0.00 87 1019.5
20260901063053 74 0 0.0 0.0 0.00 0.00 0.00 87 1019.5
20260901062532 74 0 0.0 0.0 0.00 0.00 0.00 87 1019.6
20260901062031 74 0 0.0 0.0 0.00 0.00 0.00 86 1019.6
20260901061546 74 0 0.0 1.7 0.00 0.00 0.00 86 1019.7
20260901061030 74 0 0.0 1.7 0.00 0.00 0.00 86 1019.6
20260901060529 74 0 0.0 0.0 0.00 0.00 0.00 87 1019.6
20260901060049 74 0 0.0 0.0 0.00 0.00 0.00 87 1019.6
20260901055528 74 0 0.0 0.0 0.00 0.00 0.00 87 1019.5
20260901055028 74 0 0.0 0.0 0.00 0.00 0.00 87 1019.6
20260901054559 74 0 0.0 1.7 0.00 0.00 0.00 87 1019.6
20260901054031 75 0 0.0 1.7 0.00 0.00 0.00 87 1019.8
20260901053530 75 0 0.0 1.7 0.00 0.00 0.00 86 1019.8
20260901053046 75 0 0.0 0.0 0.00 0.00 0.00 86 1019.8
20260901052528 75 0 0.0 0.0 0.00 0.00 0.00 86 1019.8
20260901052028 75 0 0.0 0.0 0.00 0.00 0.00 86 1019.8
20260901051557 75 0 0.0 0.0 0.00 0.00 0.00 86 1019.7
20260901051030 75 0 0.0 0.0 0.00 0.00 0.00 85 1019.7
20260901050528 75 0 0.0 0.9 0.00 0.00 0.00 85 1019.6
20260901050051 75 0 0.0 0.9 0.00 0.00 0.00 85 1019.7
20260901045531 75 0 0.0 1.7 0.00 0.00 0.00 85 1019.8
20260901045028 75 0 0.0 1.7 0.00 0.00 0.00 85 1019.8
20260901044602 75 0 0.0 1.7 0.00 0.00 0.00 85 1019.8
20260901044029 75 0 0.0 0.0 0.00 0.00 0.00 85 1019.8
20260901043529 75 0 0.0 0.0 0.00 0.00 0.00 84 1019.8
20260901043056 76 0 0.0 0.0 0.00 0.00 0.00 84 1019.6
20260901042534 76 0 0.0 0.0 0.00 0.00 0.00 84 1019.6
20260901042029 76 0 0.0 0.0 0.00 0.00 0.00 83 1019.6
20260901041542 76 0 0.0 0.0 0.00 0.00 0.00 84 1019.6
20260901041032 76 0 0.0 0.0 0.00 0.00 0.00 83 1019.6
20260901040529 76 0 0.0 0.9 0.00 0.00 0.00 83 1019.5
20260901040052 76 0 0.0 0.9 0.00 0.00 0.00 82 1019.6
20260901035528 76 0 0.0 0.9 0.00 0.00 0.00 82 1019.6
20260901035029 76 0 0.0 0.0 0.00 0.00 0.00 82 1019.6
20260901034544 76 0 0.0 0.0 0.00 0.00 0.00 82 1019.6
20260901034028 76 0 0.0 0.0 0.00 0.00 0.00 82 1019.6
20260901033528 76 0 0.0 0.0 0.00 0.00 0.00 82 1019.6
20260901033059 77 0 0.0 0.9 0.00 0.00 0.00 81 1019.7
20260901032529 77 0 0.0 0.9 0.00 0.00 0.00 81 1019.6
20260901032029 77 0 0.0 0.9 0.00 0.00 0.00 80 1019.6
20260901031543 77 0 0.0 0.0 0.00 0.00 0.00 80 1019.6
20260901031028 77 0 0.0 0.0 0.00 0.00 0.00 79 1019.7
20260901030529 77 0 0.0 0.0 0.00 0.00 0.00 79 1019.6
20260901030053 77 0 0.0 0.0 0.00 0.00 0.00 79 1019.7
20260901025530 78 0 0.0 0.0 0.00 0.00 0.00 78 1019.8
20260901025031 78 0 0.0 0.0 0.00 0.00 0.00 78 1019.8
20260901024546 78 0 0.0 0.0 0.00 0.00 0.00 78 1019.8
20260901024028 78 0 0.0 0.0 0.00 0.00 0.00 77 1019.8
20260901023529 78 0 0.0 0.0 0.00 0.00 0.00 77 1019.8
20260901023055 78 0 0.0 0.0 0.00 0.00 0.00 76 1019.7
20260901022531 78 0 0.0 0.0 0.00 0.00 0.00 76 1019.6
20260901022030 79 0 0.0 0.0 0.00 0.00 0.00 75 1019.6
20260901021543 79 0 0.0 0.0 0.00 0.00 0.00 74 1019.6
20260901021029 79 0 0.0 0.0 0.00 0.00 0.00 74 1019.6
20260901020529 79 0 0.0 0.0 0.00 0.00 0.00 75 1019.6
20260901020055 80 0 0.0 0.0 0.00 0.00 0.00 75 1019.5
20260901015532 80 0 0.0 0.0 0.00 0.00 0.00 74 1019.4
20260901015028 80 0 0.0 0.0 0.00 0.00 0.00 74 1019.5
20260901014553 80 0 0.0 0.0 0.00 0.00 0.00 73 1019.4
20260901014028 80 0 0.0 0.0 0.00 0.00 0.00 72 1019.4
20260901013533 81 0 0.0 0.0 0.00 0.00 0.00 71 1019.4
20260901013042 81 0 0.0 0.0 0.00 0.00 0.00 70 1019.3
20260901012535 81 0 0.0 0.0 0.00 0.00 0.00 70 1019.2
20260901012028 81 0 0.0 0.0 0.00 0.00 0.00 70 1019.2
20260901011601 81 0 0.0 0.0 0.00 0.00 0.00 69 1019.1
20260901011028 82 0 0.0 0.0 0.00 0.00 0.00 69 1018.9
20260901010528 82 0 0.0 0.0 0.00 0.00 0.00 68 1018.8
20260901010051 82 0 0.0 0.0 0.00 0.00 0.00 68 1018.8
20260901005527 83 0 0.0 0.0 0.00 0.00 0.00 67 1018.8
20260901005031 83 0 0.0 0.0 0.00 0.00 0.00 67 1018.7
20260901004555 83 0 0.0 0.0 0.00 0.00 0.00 66 1018.8
20260901004031 83 0 0.0 0.0 0.00 0.00 0.00 66 1018.7
20260901003529 84 0 0.0 0.0 0.00 0.00 0.00 66 1018.7
20260901003042 84 0 0.0 0.0 0.00 0.00 0.00 65 1018.7
20260901002529 85 0 0.0 0.0 0.00 0.00 0.00 64 1018.6
20260901002032 85 0 0.0 1.7 0.00 0.00 0.00 63 1018.6
20260901001551 86 0 0.0 1.7 0.00 0.00 0.00 61 1018.5
20260901001032 86 0 0.0 1.7 0.00 0.00 0.00 60 1018.6
20260901000533 87 0 0.0 0.0 0.00 0.00 0.00 59 1018.6
20260901000049 87 0 0.0 0.0 0.00 0.00 0.00 58 1018.5
20260831235531 87 0 0.0 0.0 0.00 0.00 0.00 58 1018.5
20260831235033 88 0 0.0 0.0 0.00 0.00 0.00 57 1018.4
20260831234551 88 0 0.0 0.0 0.00 0.00 0.00 57 1018.4
20260831234034 89 0 0.0 0.9 0.00 0.00 0.00 56 1018.4
20260831233531 89 0 0.0 0.9 0.00 0.00 0.00 55 1018.5
20260831233049 89 0 0.0 0.9 0.00 0.00 0.00 55 1018.5
20260831232530 89 0 0.0 2.6 0.00 0.00 0.00 55 1018.4
20260831232031 89 0 0.0 2.6 0.00 0.00 0.00 54 1018.4
20260831231545 90 76 0.0 2.6 0.00 0.00 0.00 54 1018.4
20260831231033 90 74 0.9 2.6 0.00 0.00 0.00 53 1018.6
20260831230534 90 74 0.9 2.6 0.00 0.00 0.00 53 1018.6
20260831230050 90 0 0.0 4.3 0.00 0.00 0.00 52 1018.6
20260831225530 90 72 1.7 4.3 0.00 0.00 0.00 51 1018.6
20260831225034 90 111 0.9 3.5 0.00 0.00 0.00 51 1018.6
20260831224553 90 69 0.9 4.3 0.00 0.00 0.00 50 1018.7
20260831224031 90 111 1.7 4.3 0.00 0.00 0.00 48 1018.7
20260831223532 91 74 0.9 5.2 0.00 0.00 0.00 49 1018.6
20260831223051 91 109 0.9 6.1 0.00 0.00 0.00 48 1018.7
20260831222532 91 0 0.0 6.1 0.00 0.00 0.00 48 1018.7
20260831222032 91 114 2.6 6.1 0.00 0.00 0.00 48 1018.7
20260831221546 91 106 2.6 5.2 0.00 0.00 0.00 48 1018.7
20260831221031 91 0 1.7 4.3 0.00 0.00 0.00 47 1018.7
20260831220534 92 0 0.9 4.3 0.00 0.00 0.00 48 1018.8
20260831220046 92 105 0.9 4.3 0.00 0.00 0.00 47 1018.8
20260831215534 92 129 1.7 4.3 0.00 0.00 0.00 48 1018.9
20260831215031 92 46 1.7 4.3 0.00 0.00 0.00 46 1018.9
20260831214620 92 0 0.9 4.3 0.00 0.00 0.00 47 1018.9
20260831214030 92 0 0.9 4.3 0.00 0.00 0.00 46 1018.8
20260831213531 92 49 0.0 2.6 0.00 0.00 0.00 48 1019.0
20260831213053 92 18 0.9 2.6 0.00 0.00 0.00 47 1019.0
20260831212530 92 20 0.9 5.2 0.00 0.00 0.00 47 1019.0
20260831212030 92 38 1.7 7.8 0.00 0.00 0.00 48 1019.0
20260831211602 92 42 1.7 7.8 0.00 0.00 0.00 49 1019.1
20260831211030 92 46 0.9 6.1 0.00 0.00 0.00 49 1019.2
20260831210527 92 63 0.9 7.0 0.00 0.00 0.00 48 1019.1
20260831210045 92 69 4.3 7.0 0.00 0.00 0.00 48 1019.1
20260831205530 92 54 2.6 5.2 0.00 0.00 0.00 48 1019.1
20260831205033 92 53 1.7 4.3 0.00 0.00 0.00 48 1019.1
20260831204556 92 76 1.7 7.0 0.00 0.00 0.00 50 1019.2
20260831204031 91 346 2.6 7.0 0.00 0.00 0.00 50 1019.3
20260831203530 91 0 0.9 7.0 0.00 0.00 0.00 50 1019.2
20260831203052 92 62 2.6 7.0 0.00 0.00 0.00 50 1019.3
20260831202531 92 33 0.9 4.3 0.00 0.00 0.00 50 1019.3
20260831202030 91 75 0.9 5.2 0.00 0.00 0.00 50 1019.3
20260831201549 91 331 1.7 7.0 0.00 0.00 0.00 51 1019.4
20260831201033 91 81 1.7 7.8 0.00 0.00 0.00 51 1019.5
20260831200531 91 60 3.5 7.8 0.00 0.00 0.00 52 1019.5
20260831200049 91 313 2.6 7.8 0.00 0.00 0.00 52 1019.6
20260831195527 91 223 1.7 4.3 0.00 0.00 0.00 53 1019.7
20260831195027 92 144 0.9 8.7 0.00 0.00 0.00 51 1019.7
20260831194543 92 341 3.5 8.7 0.00 0.00 0.00 50 1019.8
20260831194032 92 0 1.7 7.0 0.00 0.00 0.00 50 1019.8
20260831193531 92 57 2.6 7.0 0.00 0.00 0.00 51 1019.9
20260831193053 91 22 2.6 5.2 0.00 0.00 0.00 52 1019.9
20260831192530 91 234 0.9 5.2 0.00 0.00 0.00 52 1020.0
20260831192032 92 50 1.7 5.2 0.00 0.00 0.00 51 1020.0
20260831191546 91 0 0.9 7.8 0.00 0.00 0.00 54 1020.0
20260831191027 90 73 3.5 7.8 0.00 0.00 0.00 55 1020.0
20260831190528 90 175 2.6 6.1 0.00 0.00 0.00 56 1020.1